EW8226 Weather Reports


Display with metric or nautical units.
time (UTC)temp
F
wind
direction
speed
MPH
gust
MPH
rain 1hr
in
rain 24hr
in
rain mn
in
humidity
%
barometer
mb
20260505041507 53 76 0.0 0.0 0.00 0.00 0.00 87 1009.2
20260505040005 54 355 0.0 0.0 0.00 0.00 0.00 87 1009.4
20260505034504 54 360 0.0 0.0 0.00 0.00 0.00 86 1009.5
20260505033007 54 355 0.0 0.0 0.00 0.00 0.00 87 1009.7
20260505031502 54 325 0.0 1.0 0.00 0.00 0.00 87 1009.8
20260505030003 54 15 0.0 0.0 0.00 0.00 0.00 87 1009.8
20260505024504 54 26 0.0 0.0 0.00 0.00 0.00 87 1009.9
20260505023002 54 344 0.0 1.0 0.00 0.00 0.00 87 1009.9
20260505021502 55 16 0.0 0.0 0.00 0.00 0.00 87 1009.9
20260505020001 55 18 0.0 0.0 0.00 0.00 0.00 88 1009.8
20260505014505 55 334 0.0 0.0 0.00 0.00 0.00 88 1009.8
20260505013100 55 26 0.0 0.0 0.00 0.00 0.00 88 1009.8
20260505011601 55 20 0.0 0.0 0.00 0.00 0.00 88 1010.0
20260505004600 55 5 0.0 0.0 0.00 0.00 0.00 89 1010.2
20260505003057 55 360 0.0 0.0 0.00 0.00 0.00 89 1010.3
20260505001555 55 257 0.0 0.0 0.00 0.00 0.00 89 1010.3
20260505000100 55 13 0.0 0.0 0.00 0.00 0.00 89 1010.3
20260504234616 54 300 0.0 0.0 0.00 0.00 0.00 89 1010.4
20260504233056 54 295 0.0 0.0 0.00 0.00 0.00 89 1010.5
20260504231601 54 13 0.0 0.0 0.00 0.00 0.00 89 1010.7
20260504230054 54 360 0.0 0.0 0.00 0.00 0.00 89 1010.9
20260504224603 54 336 0.0 0.0 0.00 0.00 0.00 89 1011.0
20260504223052 54 42 0.0 0.0 0.00 0.00 0.00 88 1011.0
20260504221602 54 277 0.0 0.0 0.00 0.00 0.00 88 1011.2
20260504220055 54 238 0.0 0.0 0.00 0.00 0.00 88 1011.3
20260504214555 54 346 0.0 0.0 0.00 0.00 0.00 88 1011.4
20260504213102 54 344 0.0 0.0 0.00 0.00 0.00 88 1011.5
20260504211551 54 350 0.0 0.0 0.00 0.00 0.00 87 1011.7
20260504204634 54 5 0.0 0.0 0.00 0.00 0.00 87 1012.0
20260504203052 54 342 0.0 0.0 0.00 0.00 0.00 86 1011.9
20260504201549 54 355 0.0 0.0 0.00 0.09 0.00 86 1011.7
20260504200008 54 347 0.0 1.0 0.00 0.09 0.00 85 1011.8
20260504194504 55 5 0.0 0.0 0.00 0.09 0.00 85 1011.8
20260504193100 55 355 0.0 0.0 0.00 0.09 0.00 85 1011.7
20260504191559 55 360 0.0 0.0 0.00 0.09 0.00 85 1011.5
20260504190053 56 355 0.0 0.0 0.00 0.09 0.00 84 1011.5
20260504184555 56 34 0.0 0.0 0.00 0.09 0.00 84 1011.5
20260504183040 56 15 0.0 1.0 0.00 0.09 0.00 84 1011.5
20260504181538 56 315 0.0 0.0 0.00 0.09 0.00 84 1011.1
20260504180100 57 29 0.0 0.0 0.00 0.09 0.00 84 1011.1
20260504174559 57 344 0.0 0.0 0.00 0.09 0.00 84 1011.1
20260504173056 57 306 0.0 0.0 0.00 0.09 0.00 84 1011.2
20260504171556 58 22 0.0 4.0 0.00 0.09 0.00 84 1011.1
20260504081559 54 5 0.0 0.0 0.00 0.35 0.09 89 1012.4